Accueil
METAR-TAF:

METAR-TAF

Aéroports :

Monte Argentario, Italie

latitude: 42-23N, longitude: 011-10E, altitude: 630 m

Observation

Le bulletin a été fait il y a 1 heure et 12 minutes, à 16:55 UTC
Vent 35 kt de sud/sud-est
Température 12°C
Humidité 100%
Pression 997 hPa
Visibilité inférieure à 50 m
pluie faible, brouillard

METAR: LIQO 051655Z 16035KT 0000 -RA FG VV/// 12/12 Q0997 RMK VAL INVIS NC VIS MIN 0000

Heure: 19:07 (18:07 UTC)


TAF: absent

Observations et prévisions météorologiques de plus de 4000 aéroports (messages METAR et TAF).

Les stations disponibles sont représentées par des disques jaunes et rouges sur la carte.

Passer la souris dessus pour voir le nom de la station.

Cliquer dessus pour voir les observations et prévisions météorologiques.

Pour changer de carte: cliquez sur les boutons verts avec une croix noire pour zoomer, sur le bouton vert avec un tiret pour effectuer un zoom arrière, ou sur les flèches vertes pour les cartes adjacentes.


METAR-TAF: